This demonstration page uses our WeatherBlox Daily Observations layout. Learn more.

39.08367, -84.50855

Hourly Observations for June 15, 2019

Temp ( °F °C ) Dew Point ( °F °C ) Humidity (%) Winds ( mph kmh ) Pressure ( in mb ) Visibility ( mi km ) Precip ( " mm )
12:53 am 00:53 Cloudy with Light Rain 63 17.2 54 12.2 73 73 SSW 3 6 30.01 1016 10 16.0934 0 0.0254
1:53 am 01:53 Cloudy 62 16.7 54 12.2 75 75 SSE 5 7 30.03 1017 10 16.0934 0 0.0254
2:53 am 02:53 Cloudy with Light Rain 61 16.1 58 14.4 90 90 VRB 5 7 30.02 1017 10 16.0934 0 0.0254
3:53 am 03:53 Partly Cloudy 60 15.6 57 13.9 90 90 Calm 30.01 1016 10 16.0934 0 0.0254
4:53 am 04:53 Cloudy 62 16.7 54 12.2 75 75 SSW 8 13 30.01 1016 10 16.0934 0 0
5:53 am 05:53 Partly Cloudy 62 16.7 54 12.2 75 75 S 6 9 30.01 1016 10 16.0934 0 0
6:53 am 06:53 Mostly Sunny 64 17.8 54 12.2 70 70 SSW 8 13 30.02 1017 10 16.0934 0 0
7:53 am 07:53 Sunny 65 18.3 54 12.2 68 68 S 12 19 30.01 1016 10 16.0934 0 0
8:53 am 08:53 Cloudy 66 18.9 55 12.8 68 68 SSW 12 19 30 1016 10 16.0934 0 0
9:53 am 09:53 Sunny 67 19.4 56 13.3 68 68 S 15 24 29.99 1016 10 16.0934 0 0.0254
10:53 am 10:53 Mostly Sunny 70 21.1 58 14.4 66 66 SSW 10 17 29.99 1016 10 16.0934 0 0
11:53 am 11:53 Partly Cloudy 70 21.1 61 16.1 73 73 S 9 15 29.97 1015 10 16.0934 0 0.0254
12:53 pm 12:53 Mostly Cloudy 72 22.2 62 16.7 71 71 SW 3 6 29.98 1015 10 16.0934 0 0.0254
1:53 pm 13:53 Cloudy with Light Rain 75 23.9 63 17.2 66 66 SSW 10 17 29.97 1015 10 16.0934 0 0.0254
2:53 pm 14:53 Cloudy with Light Rain 73 22.8 68 20 84 84 Calm 29.96 1015 10 16.0934 0.02 0.508
3:53 pm 15:53 Cloudy with Light Rain 71 21.7 67 19.4 87 87 SW 6 9 29.95 1014 5 8.0467 0.04 1.016
4:53 pm 16:53 Mostly Cloudy 74 23.3 68 20 82 82 Calm 29.91 1013 10 16.0934 0 0.0254
5:53 pm 17:53 Cloudy with Heavy Rain 71 21.7 67 19.4 87 87 VRB 6 9 29.9 1012 4 6.43736 0.09 2.286
6:00 pm 18:00 Cloudy with Nearby Thunderstorms 71 21.7 67 19.4 87 87 SE 8 13 29.88 1012 2.5 4.02335 0.02 0.508
6:02 pm 18:02 Cloudy with Light Rain 71 21.7 67 19.4 87 87 SSE 7 11 29.88 1012 3 4.82802 0.02 0.508
6:53 pm 18:53 Mostly Cloudy 72 22.2 69 20.6 91 91 Calm 29.87 1011 8 12.87472 0.02 0.508
7:53 pm 19:53 Cloudy with Mist and Fog 72 22.2 70 21.1 94 94 Calm 29.85 1011 6 9.65604 0 0
8:53 pm 20:53 Partly Cloudy with Mist and Fog 71 21.7 70 21.1 96 96 Calm 29.82 1010 5 8.0467 0 0
9:32 pm 21:32 Mostly Cloudy with Light Thunderstorms 72 22.2 67 19.4 84 84 SSW 5 7 29.8 1009 9 14.48406 0 0.0254
9:53 pm 21:53 Mostly Cloudy with Light Thunderstorms 73 22.8 66 18.9 79 79 SSW 5 7 29.82 1010 7 11.26538 0.04 1.016
10:30 pm 22:30 Mostly Cloudy with Light Rain 72 22.2 66 18.9 82 82 S 12 19 29.81 1010 9 14.48406 0.04 1.016
10:53 pm 22:53 Mostly Cloudy with Light Rain 72 22.2 66 18.9 82 82 S 14 22 29.81 1009 9 14.48406 0.06 1.524
11:17 pm 23:17 Mostly Cloudy with Nearby Thunderstorms 70 21.1 66 18.9 87 87 S 14 22 29.8 1009 8 12.87472 0.04 1.016
11:32 pm 23:32 Cloudy with Light Thunderstorms 70 21.1 67 19.4 90 90 W 13 20 29.85 1011 8 12.87472 0.04 1.016
11:42 pm 23:42 Cloudy with Heavy Thunderstorms 70 21.1 68 20 93 93 W 14 22 29.86 1011 1.75 2.816345 0.19 4.826
11:49 pm 23:49 Cloudy with Nearby Thunderstorms 70 21 68 20 94 94 W 12 19 29.85 1011 1.75 2.816345 0.27 6.858
11:53 pm 23:53 Cloudy with Nearby Thunderstorms 69 20.6 68 20 96 96 W 10 17 29.85 1011 2.5 4.02335 0.27 6.858
11:59 pm 23:59 Cloudy with Rain 70 21.1 68 20 93 93 W 12 19 29.86 1011 4 6.43736 0.03 0.762

Powered by AerisWeather